Probability
0 0 0 0 0 0 0 0 0 0 0 0 0 0 0 0 0 0 0 3 6 6 6 13 3 0 3 3 6 3 3 6 3 10 6 6 13 10 10 13 19 19 19
0 0 0 0 0 0 0 0 0 0 0 0 0 0 0 0 0 0 0 0 3 13 10 0 3 3 6 3 6 6 3 3 3 10 10 10 13 13 10 6 16 19 19
0 0 0 0 0 0 0 0 0 0 0 0 0 0 0 0 0 0 0 0 0 0 6 6 0 0 6 6 6 6 6 6 3 6 10 10 13 16 13 13 10 13 13
0 0 0 0 0 0 0 0 0 0 0 0 0 0 0 0 0 0 0 0 0 0 3 6 0 3 3 6 3 3 3 6 3 6 6 10 13 13 19 16 10 10 13
0 0 0 0 0 0 0 0 0 0 0 0 0 0 0 0 0 0 0 0 0 0 0 0 0 3 6 0 3 0 0 6 3 3 3 3 6 13 13 19 13 3 10
0 0 0 0 0 0 0 0 0 0 0 0 0 0 0 0 0 0 0 0 0 0 0 0 0 0 6 6 3 0 0 0 3 6 3 3 3 10 10 13 6 6 13
0 0 0 0 0 0 0 0 0 0 0 0 0 0 0 0 0 0 0 0 0 0 0 0 0 0 0 0 0 0 0 3 3 3 3 3 3 3 10 6 10 13 16
0 0 0 0 0 0 0 0 0 0 0 0 0 0 0 0 0 0 0 0 0 0 0 0 0 0 0 0 0 3 3 3 3 3 3 6 6 3 3 6 6 13 13
0 0 0 0 0 0 0 0 0 0 0 0 0 0 0 0 0 0 0 0 0 0 0 0 0 0 0 0 0 0 3 3 6 3 3 3 3 3 6 10 6 10 13
0 0 0 0 0 0 0 0 0 0 0 0 0 0 0 0 0 0 0 0 0 0 0 0 0 0 0 0 0 0 3 3 3 0 3 3 3 6 6 6 10 13 10
0 0 0 0 0 0 0 0 0 0 0 0 0 0 0 0 0 0 0 0 0 0 0 0 0 0 0 0 0 0 3 3 3 0 3 3 3 6 6 6 10 10 10
0 0 0 0 0 0 0 0 0 0 0 0 0 0 0 0 0 0 0 0 0 0 0 0 0 0 0 0 0 0 3 0 0 0 0 0 0 3 3 6 10 10 10
0 0 0 0 0 0 0 0 0 0 0 0 0 0 0 0 0 0 0 0 0 0 0 0 0 0 0 0 0 0 0 0 0 0 0 0 3 0 3 3 6 6 10
0 0 0 0 0 0 0 0 0 0 0 0 0 0 0 0 0 0 0 0 0 0 0 0 0 0 0 0 0 0 0 0 0 0 0 0 0 0 3 3 3 3 3
0 0 0 0 0 0 0 0 0 0 0 0 0 0 0 0 0 0 0 0 0 0 0 0 0 0 0 0 0 0 0 0 0 0 0 0 0 0 0 3 3 3 3
0 0 0 0 0 0 0 0 0 0 0 0 0 0 0 0 0 0 0 0 0 0 0 0 0 0 0 0 0 0 0 0 0 0 0 0 0 0 0 3 3 3 3
0 0 0 0 0 0 0 0 0 0 0 0 0 0 0 0 0 0 0 0 0 0 0 0 0 0 0 0 0 0 0 0 0 0 0 0 0 0 0 0 3 0 0
0 3 3 3 3 0 0 0 0 0 0 0 0 0 0 0 0 0 0 0 0 0 0 0 0 0 0 0 0 0 0 0 0 0 0 0 0 0 0 0 0 0 0
0 0 0 3 3 0 0 0 0 0 0 0 0 0 0 0 0 0 0 0 0 0 0 0 0 0 0 0 0 0 0 0 0 0 0 0 0 0 0 0 0 0 0
0 0 0 0 0 0 0 0 0 0 0 0 0 0 0 0 0 0 0 0 0 0 0 0 0 0 0 0 0 0 0 0 0 0 0 0 0 0 0 0 0 0 0
0 0 0 0 0 0 0 0 0 0 0 0 0 0 0 0 0 0 0 0 0 0 0 0 0 0 0 0 0 0 0 0 0 0 0 0 0 0 0 0 0 0 0
0 0 0 0 0 0 0 0 0 0 0 0 0 0 0 0 0 0 0 0 0 0 0 0 0 0 0 0 0 0 0 0 0 0 0 0 0 0 0 0 0 0 0
0 0 0 0 0 0 0 0 0 0 0 0 0 0 0 0 0 0 0 0 0 0 0 0 0 0 0 0 0 0 0 0 0 0 0 0 0 0 0 0 0 0 0
0 0 0 0 0 0 0 0 0 0 0 0 0 0 0 0 0 0 0 0 0 0 0 0 0 0 0 0 0 0 0 0 0 0 0 0 0 0 0 0 0 0 0
0 0 0 0 0 0 0 0 0 0 0 0 0 0 0 0 0 0 0 0 0 0 0 0 0 0 0 0 0 0 0 0 0 0 0 0 0 0 0 0 0 0 0
0 0 0 0 0 0 0 0 0 0 0 0 0 0 0 0 0 0 0 0 0 0 0 0 0 0 0 0 0 0 0 0 0 0 0 0 0 0 0 0 0 0 0
Height
5851 5851 5850 5850 5850 5849 5849 5849 5849 5848 5848 5848 5847 5847 5847 5847 5846 5846 5845 5845 5845 5844 5844 5844 5844 5843 5843 5843 5843 5843 5843 5843 5843 5844 5844 5845 5846 5846 5847 5847 5848 5849 5849
5849 5849 5848 5848 5847 5847 5847 5846 5846 5846 5846 5845 5845 5845 5844 5844 5843 5843 5842 5842 5841 5841 5841 5840 5840 5839 5838 5837 5837 5838 5839 5840 5841 5841 5842 5842 5842 5843 5844 5844 5845 5845 5846
5847 5846 5846 5845 5845 5845 5844 5844 5843 5843 5843 5843 5842 5842 5842 5841 5840 5840 5839 5839 5838 5838 5837 5837 5836 5835 5833 5831 5832 5834 5835 5837 5837 5838 5838 5839 5839 5839 5840 5841 5841 5842 5842
5844 5843 5843 5843 5842 5842 5841 5841 5841 5840 5840 5840 5839 5839 5838 5838 5837 5837 5836 5836 5835 5834 5834 5833 5833 5832 5830 5829 5829 5830 5832 5833 5834 5834 5835 5835 5836 5836 5836 5837 5838 5838 5838
5841 5841 5840 5840 5840 5839 5839 5839 5838 5838 5837 5837 5836 5836 5835 5835 5834 5834 5833 5832 5831 5831 5830 5830 5829 5829 5828 5828 5828 5828 5829 5830 5830 5831 5831 5831 5832 5832 5833 5833 5834 5834 5835
5839 5838 5837 5837 5837 5837 5836 5836 5835 5835 5834 5834 5833 5833 5832 5831 5831 5830 5829 5828 5828 5827 5827 5826 5826 5826 5825 5825 5825 5826 5826 5826 5826 5827 5827 5828 5828 5828 5829 5830 5830 5831 5831
5836 5835 5835 5834 5834 5834 5833 5833 5832 5832 5831 5830 5830 5829 5828 5828 5827 5826 5825 5824 5824 5823 5823 5822 5822 5822 5822 5822 5822 5822 5822 5823 5823 5823 5824 5824 5824 5825 5825 5826 5826 5827 5828
5833 5832 5832 5831 5831 5830 5830 5829 5829 5828 5827 5826 5826 5825 5824 5824 5822 5822 5821 5820 5819 5819 5819 5818 5818 5818 5818 5818 5818 5818 5818 5819 5819 5820 5820 5820 5821 5821 5822 5822 5823 5823 5824
5830 5830 5829 5828 5827 5826 5826 5825 5825 5824 5823 5822 5821 5821 5820 5819 5818 5817 5816 5815 5815 5814 5814 5814 5813 5813 5813 5813 5813 5814 5814 5815 5815 5816 5816 5817 5817 5818 5818 5818 5819 5820 5820
5827 5826 5825 5824 5824 5823 5822 5821 5820 5819 5818 5817 5816 5815 5815 5814 5813 5812 5812 5811 5810 5810 5809 5809 5809 5809 5808 5808 5809 5809 5810 5810 5811 5812 5812 5813 5813 5814 5814 5815 5815 5815 5816
5823 5822 5821 5820 5820 5819 5818 5817 5816 5814 5813 5812 5811 5810 5809 5809 5808 5807 5806 5806 5805 5804 5804 5804 5804 5804 5804 5804 5804 5804 5805 5806 5807 5807 5808 5809 5809 5810 5810 5811 5811 5811 5812
5819 5818 5817 5816 5815 5814 5813 5812 5811 5810 5808 5807 5806 5804 5804 5803 5802 5801 5801 5800 5800 5800 5799 5798 5798 5798 5798 5799 5799 5799 5800 5800 5801 5802 5803 5804 5805 5805 5806 5806 5807 5807 5807
5815 5814 5813 5812 5811 5809 5808 5807 5806 5804 5803 5801 5800 5799 5798 5797 5796 5796 5795 5795 5795 5794 5794 5793 5793 5793 5793 5793 5794 5794 5794 5795 5796 5797 5798 5799 5800 5800 5801 5801 5802 5802 5803
5810 5809 5808 5807 5806 5804 5803 5802 5800 5799 5797 5796 5794 5793 5792 5791 5790 5790 5790 5789 5789 5789 5789 5788 5787 5787 5788 5788 5788 5788 5789 5789 5790 5791 5792 5793 5794 5795 5795 5796 5797 5797 5797
5806 5804 5803 5802 5800 5799 5798 5796 5794 5793 5791 5790 5789 5787 5786 5786 5785 5784 5784 5783 5783 5783 5783 5782 5782 5782 5781 5781 5782 5782 5783 5783 5784 5785 5786 5787 5788 5789 5790 5790 5791 5791 5792
5801 5799 5798 5796 5795 5794 5792 5790 5789 5787 5785 5784 5783 5782 5781 5780 5779 5778 5778 5777 5777 5777 5777 5777 5776 5776 5775 5775 5775 5776 5776 5777 5778 5778 5780 5781 5782 5783 5784 5784 5785 5785 5785
5795 5794 5792 5791 5789 5788 5786 5784 5783 5781 5779 5778 5776 5775 5774 5774 5773 5772 5771 5771 5770 5770 5770 5771 5770 5769 5769 5769 5769 5769 5770 5770 5771 5772 5773 5774 5775 5776 5777 5777 5778 5778 5779
5789 5788 5786 5785 5783 5781 5780 5778 5776 5774 5773 5771 5770 5769 5767 5767 5766 5766 5765 5764 5764 5763 5763 5763 5763 5763 5763 5762 5762 5762 5763 5763 5764 5764 5765 5766 5767 5768 5769 5770 5770 5771 5771
5783 5782 5780 5778 5776 5775 5773 5771 5769 5767 5766 5764 5763 5761 5760 5759 5759 5758 5757 5757 5756 5756 5756 5756 5756 5756 5756 5755 5755 5755 5755 5755 5756 5756 5757 5758 5759 5760 5761 5762 5762 5763 5763
5777 5775 5773 5771 5769 5768 5766 5764 5762 5760 5758 5757 5755 5754 5753 5752 5751 5750 5750 5749 5748 5748 5748 5748 5749 5749 5749 5748 5748 5747 5747 5747 5748 5748 5749 5750 5751 5752 5753 5753 5754 5755 5755
5769 5767 5765 5764 5762 5760 5758 5755 5754 5752 5750 5749 5747 5746 5745 5744 5743 5742 5742 5741 5741 5741 5740 5740 5741 5741 5741 5740 5740 5740 5740 5739 5740 5740 5741 5742 5742 5743 5744 5745 5745 5746 5747
5762 5760 5758 5756 5754 5751 5749 5747 5745 5743 5742 5740 5739 5737 5736 5735 5735 5734 5733 5733 5733 5732 5732 5732 5732 5732 5732 5732 5732 5731 5731 5731 5732 5733 5732 5733 5733 5734 5735 5736 5736 5737 5738
5754 5752 5749 5747 5745 5743 5741 5738 5736 5735 5733 5731 5730 5729 5728 5727 5726 5725 5725 5724 5724 5723 5723 5723 5723 5723 5723 5723 5723 5723 5723 5723 5723 5724 5724 5725 5725 5725 5725 5726 5727 5727 5728
5746 5743 5741 5739 5737 5734 5732 5730 5728 5726 5724 5722 5721 5720 5719 5718 5717 5716 5716 5715 5715 5714 5714 5713 5713 5714 5714 5714 5714 5714 5714 5714 5714 5715 5715 5716 5716 5716 5716 5716 5717 5717 5718
5737 5734 5732 5730 5727 5725 5723 5721 5719 5717 5716 5714 5713 5711 5710 5709 5708 5707 5706 5706 5706 5705 5705 5704 5704 5704 5704 5704 5704 5705 5705 5705 5706 5706 5706 5706 5707 5706 5707 5707 5707 5707 5708
5728 5726 5723 5721 5719 5716 5714 5712 5710 5708 5707 5705 5704 5703 5701 5700 5698 5697 5696 5696 5696 5696 5695 5695 5694 5695 5695 5695 5695 5695 5695 5696 5696 5697 5697 5697 5697 5697 5698 5698 5697 5697 5698
Wind_Speed
11 11 11 11 10 10 10 11 11 11 12 11 11 11 12 13 13 14 14 15 16 16 16 16 17 17 17 16 16 15 15 14 14 14 13 13 14 14 14 14 13 13 13
12 12 12 11 10 11 11 11 11 11 11 11 11 11 11 12 13 14 14 15 16 16 16 16 17 17 18 18 17 16 16 15 14 14 14 14 14 14 14 15 15 14 15
12 12 12 12 11 11 11 11 11 12 11 11 12 12 12 12 12 12 13 14 15 16 16 16 16 17 17 16 16 17 16 15 14 14 14 15 14 14 15 15 15 14 14
12 12 12 12 12 12 11 12 12 12 12 12 12 12 13 13 13 13 14 14 15 15 16 16 16 15 16 15 15 15 16 15 15 15 16 16 15 15 15 14 14 14 15
12 12 12 12 12 12 12 12 12 12 13 13 13 13 14 14 14 14 15 15 15 16 15 15 15 15 15 14 14 14 15 15 16 16 16 16 16 16 15 14 14 14 14
12 12 12 12 12 12 12 12 12 12 13 13 14 14 15 15 15 15 16 16 16 16 16 15 15 15 15 15 15 15 15 16 16 17 16 16 16 16 15 15 14 14 14
12 13 13 13 12 13 14 13 14 14 14 14 14 15 15 16 16 16 16 16 15 15 16 15 15 15 15 15 15 15 15 15 15 15 15 15 15 15 15 15 15 14 14
12 12 13 13 13 14 15 14 15 15 15 15 16 15 16 16 16 17 17 17 16 16 16 16 16 16 16 16 16 15 14 15 15 14 13 13 13 15 14 14 14 14 14
13 14 13 12 13 14 15 15 16 16 17 17 17 17 17 17 17 17 17 17 17 17 16 16 16 16 16 16 16 16 15 15 14 13 13 13 13 13 13 14 14 14 14
15 14 14 14 15 15 15 16 17 17 18 18 18 18 18 18 18 18 18 18 18 18 17 17 17 17 17 16 16 16 16 15 15 14 14 14 14 14 14 15 14 14 14
16 16 15 15 16 16 16 17 17 18 18 18 19 18 18 19 19 18 18 18 18 18 18 18 17 17 17 17 17 16 16 16 15 15 15 15 15 15 15 15 15 16 15
16 16 16 16 17 17 18 18 18 19 19 19 19 20 20 20 19 19 19 19 19 19 18 18 18 18 18 18 18 18 17 17 17 17 17 17 17 17 17 16 16 17 16
18 18 18 18 18 19 19 19 20 20 20 21 21 20 20 20 20 19 19 19 19 19 19 19 18 18 19 19 19 18 18 18 19 19 18 18 18 18 18 18 18 18 18
18 19 19 19 19 19 20 21 21 22 21 21 21 21 20 20 20 20 20 20 19 19 19 20 19 19 19 19 20 20 20 20 20 20 20 20 20 20 20 20 20 19 19
19 19 19 20 20 21 21 21 22 22 22 22 22 21 21 21 21 21 20 20 20 19 19 20 20 20 21 21 21 21 22 22 21 21 22 21 21 22 22 22 21 21 20
20 20 21 21 21 22 23 23 23 23 23 22 22 22 22 22 22 21 21 21 21 21 21 21 21 21 22 22 22 22 22 22 22 22 23 23 23 23 23 23 23 23 22
21 21 21 22 22 23 23 23 23 23 23 23 24 24 24 24 23 24 23 23 23 23 23 22 22 23 23 23 23 23 23 23 24 24 24 25 25 25 25 25 25 24 24
22 23 23 23 23 24 24 24 25 24 24 25 25 25 25 25 25 25 25 24 24 24 24 23 24 24 24 24 24 25 25 25 25 26 26 26 26 26 25 25 25 26 25
24 24 25 25 25 25 26 26 26 26 26 26 26 26 26 26 26 26 26 26 25 25 25 25 25 26 25 25 26 26 26 26 26 27 27 27 27 27 27 26 26 26 26
25 26 26 27 27 27 28 28 28 28 27 27 27 27 26 26 26 26 27 26 26 26 26 26 27 26 26 26 26 26 26 26 27 28 28 29 29 28 28 28 27 27 27
26 27 27 27 28 28 28 28 29 29 28 28 28 28 28 28 28 28 27 27 27 28 27 27 27 26 26 26 27 27 28 27 28 28 28 29 29 29 29 29 29 29 29
27 28 28 28 28 29 29 29 29 29 29 29 29 28 28 29 28 28 28 28 29 29 28 28 28 28 27 27 27 27 28 28 28 28 29 30 30 30 30 30 30 31 31
29 29 29 29 29 30 30 30 29 29 30 30 30 30 30 29 29 29 28 28 29 30 30 30 30 29 29 29 28 28 28 28 28 29 30 30 30 30 31 31 31 32 32
31 30 30 30 30 30 30 30 29 29 30 30 29 30 30 30 30 29 29 30 30 29 29 30 31 30 30 30 30 30 29 29 29 29 30 30 30 31 31 31 32 32 32
31 31 31 30 30 30 30 29 29 29 29 29 29 29 30 30 30 30 30 30 30 29 29 30 31 30 30 30 31 31 30 30 30 30 30 31 31 31 31 32 32 33 33
30 30 30 30 30 29 29 29 29 29 29 29 29 29 29 30 30 30 31 31 31 30 30 30 30 30 30 30 30 30 30 31 31 31 31 31 31 32 31 32 32 32 32
Wind_Direction
285 284 283 281 283 284 283 284 284 284 282 280 279 279 278 278 277 275 276 277 277 278 279 277 275 275 275 274 271 270 270 268 266 264 262 259 257 259 261 262 262 260 260
285 285 283 282 283 285 287 287 287 287 284 281 281 282 283 282 279 277 278 278 278 279 280 278 278 277 274 272 265 266 267 267 265 264 263 261 259 259 262 264 263 263 263
285 286 285 284 285 286 285 285 283 283 283 283 283 281 281 282 282 282 279 279 281 282 281 279 279 279 276 270 263 257 260 262 263 263 263 260 259 260 260 261 262 263 262
287 286 286 284 283 284 284 283 282 280 280 282 283 282 283 283 281 281 281 282 282 282 281 280 279 276 272 267 258 254 256 258 260 260 261 259 259 260 259 260 261 263 262
288 284 284 286 284 282 284 286 282 279 281 283 283 284 286 285 282 282 283 282 281 280 282 283 280 275 269 265 261 259 258 258 258 259 260 259 258 259 258 258 259 260 259
287 285 283 284 282 281 282 284 282 281 281 283 283 284 285 284 283 284 284 282 280 278 278 279 279 275 271 269 266 264 262 258 257 258 261 260 260 259 257 257 256 255 258
290 286 283 280 279 281 282 283 283 283 284 283 283 283 284 284 285 285 284 284 282 279 275 274 273 272 272 271 267 266 263 261 261 262 263 261 259 256 255 255 257 257 259
295 294 289 281 281 282 280 281 283 284 284 284 283 283 285 286 286 286 286 285 283 281 278 276 274 271 269 269 268 268 267 266 266 265 265 266 261 259 260 262 263 263 265
292 293 291 288 288 286 284 282 281 283 283 284 284 284 284 285 286 285 284 283 282 281 280 278 277 274 270 266 267 267 268 269 267 266 265 266 266 266 265 265 265 265 266
289 289 288 287 288 288 286 283 284 284 284 284 283 283 283 283 284 284 283 281 279 279 278 276 274 272 271 268 268 268 268 267 265 264 263 264 265 266 265 265 265 265 266
290 290 288 287 286 285 285 285 287 286 284 283 283 283 283 283 282 282 282 281 280 278 277 276 272 271 272 272 269 267 265 264 263 263 262 261 263 264 264 264 265 265 265
291 291 290 287 285 284 284 284 286 286 285 284 284 283 282 282 282 280 279 278 279 278 278 277 273 270 271 273 270 266 266 265 263 262 262 261 262 263 264 265 266 265 266
293 291 288 286 285 284 284 285 285 286 285 285 284 284 282 281 281 280 279 278 277 275 275 276 274 271 271 271 272 269 267 266 263 262 262 262 263 263 265 266 268 268 268
294 292 288 286 285 286 287 287 287 287 286 285 284 284 283 281 280 280 280 278 276 273 272 274 271 270 271 271 271 269 267 266 264 263 262 262 262 264 265 266 267 268 269
293 293 291 288 286 286 287 287 288 288 286 285 285 283 281 279 279 279 279 279 276 273 272 272 270 270 272 271 271 269 267 266 266 264 262 262 263 264 266 266 266 267 268
291 290 290 289 287 286 286 285 287 287 285 284 283 282 280 278 278 278 279 278 276 274 272 271 270 272 273 272 270 269 268 268 268 265 262 262 264 265 265 266 266 267 267
291 290 288 289 288 287 287 287 286 285 285 284 283 281 280 278 277 277 278 278 276 274 272 271 271 273 273 273 272 271 271 271 269 266 265 265 264 264 265 266 267 268 267
290 290 289 289 288 287 287 286 286 285 284 282 282 283 281 278 277 277 278 278 276 274 273 272 272 273 274 275 274 273 273 271 269 267 265 265 265 265 265 266 267 267 266
287 288 289 289 288 287 287 286 285 285 284 281 282 282 282 281 279 278 277 276 274 273 273 272 272 272 272 274 274 274 272 271 268 266 265 266 265 266 266 266 267 268 267
286 287 287 288 287 287 287 286 285 284 283 281 281 282 282 281 280 279 279 277 275 275 273 272 272 272 272 273 274 275 274 272 269 267 266 266 266 265 266 266 266 268 268
286 287 287 286 286 286 286 286 285 284 283 281 280 280 280 281 280 280 279 277 276 275 275 274 272 273 274 273 274 275 274 272 271 269 268 267 267 267 267 267 267 268 268
287 287 286 286 286 286 287 286 285 284 281 280 280 280 280 280 279 280 278 277 275 276 277 275 275 274 275 275 275 276 275 272 270 271 270 269 269 268 268 268 267 268 269
287 287 287 287 287 287 287 286 285 284 282 281 280 279 279 280 279 279 277 276 276 276 275 275 275 274 274 275 274 274 274 272 270 269 269 270 270 269 268 268 268 268 269
288 288 288 287 287 288 287 286 284 284 282 280 280 280 280 280 279 279 279 278 278 277 276 275 274 273 273 272 272 272 271 270 269 269 269 269 269 269 268 267 268 268 269
290 290 290 289 288 288 286 285 284 283 282 282 281 282 282 281 279 279 278 277 277 276 275 274 274 272 271 271 272 271 269 270 269 269 269 269 268 268 268 269 269 269 269
291 291 291 290 290 288 286 285 284 283 283 282 282 283 282 281 280 279 278 277 276 275 276 275 274 273 272 271 272 271 270 270 270 270 270 269 269 268 267 268 268 269 269